SHIYAN-12 01 (SY-12 01)

Last updated on Sat Sep 05 2026 00:03:06 GMT+0000 (Coordinated Universal Time)

1 50321U 21129A 26247.74754000 .00000143 00000+0 00000+0 0 9990 2 50321 3.8728 78.7860 0001811 172.2167 36.0196 1.00470944 17297
UTC large
Height (km)
Speed (km/s)
/
Latitude / Longitude
Inclination (degrees)
Orbital Period (minutes)
Azimuth
Elevation
Range (km)
Doppler Factor

Next 0 passes for location: London (51.5072 / 0.1276)

No passes found over London.
SHIYAN-12 01 (SY-12 01)